Temp
-6 -6 -6 -7 -7 -7 -6 -6 -6 -6 -6 -5 -5 -5 -5 -5 -5 -5 -6 -6 -6 -6 -6 -6 -6 -6 -6 -6 -6 -6 -6 -6 -6 -6 -6 -6 -6 -6 -7 -7 -7 -7 -7 -7 -7 -7 -7 -7 -7 -7 -7 -7 -7 -7 -7 -6 -7 -7 -7 -6 -7 -7 -7
-6 -6 -6 -6 -7 -7 -6 -6 -6 -6 -6 -6 -5 -5 -5 -5 -5 -5 -6 -6 -6 -6 -6 -6 -6 -6 -6 -6 -6 -6 -6 -6 -6 -6 -6 -6 -6 -6 -7 -7 -7 -7 -7 -7 -7 -7 -7 -7 -7 -7 -7 -7 -7 -7 -7 -6 -7 -7 -6 -6 -6 -7 -7
-6 -6 -6 -6 -6 -7 -7 -6 -6 -6 -6 -6 -6 -5 -5 -5 -5 -5 -5 -5 -6 -6 -6 -6 -6 -6 -6 -6 -6 -6 -6 -6 -6 -6 -6 -6 -6 -6 -6 -7 -7 -7 -7 -7 -7 -7 -7 -7 -7 -7 -7 -7 -7 -7 -6 -6 -6 -7 -6 -6 -6 -7 -7
-6 -6 -6 -6 -6 -7 -7 -7 -7 -7 -6 -6 -6 -6 -5 -5 -5 -5 -5 -5 -5 -6 -6 -6 -6 -6 -6 -6 -6 -6 -6 -6 -6 -6 -6 -6 -7 -6 -6 -6 -6 -6 -7 -7 -7 -7 -7 -7 -7 -7 -7 -7 -7 -7 -6 -6 -6 -6 -6 -6 -6 -6 -6
-6 -6 -6 -6 -6 -7 -7 -7 -7 -7 -7 -6 -6 -6 -6 -5 -5 -5 -5 -5 -6 -5 -5 -6 -6 -6 -6 -6 -6 -6 -6 -6 -6 -6 -6 -7 -7 -7 -6 -6 -6 -6 -7 -7 -6 -7 -7 -7 -7 -7 -7 -7 -7 -7 -6 -6 -6 -6 -6 -6 -6 -6 -6
-6 -6 -6 -6 -6 -6 -7 -7 -7 -7 -7 -7 -7 -6 -6 -6 -5 -6 -6 -6 -6 -6 -6 -6 -6 -6 -6 -6 -6 -6 -6 -6 -6 -6 -6 -6 -6 -6 -6 -6 -6 -6 -7 -7 -6 -6 -6 -6 -7 -7 -7 -7 -7 -7 -6 -6 -6 -6 -6 -6 -6 -6 -6
-6 -6 -6 -6 -6 -6 -7 -7 -7 -7 -7 -7 -7 -6 -6 -6 -6 -6 -6 -6 -6 -6 -6 -6 -6 -6 -6 -6 -6 -6 -6 -6 -6 -6 -6 -6 -6 -6 -6 -7 -7 -7 -7 -7 -7 -7 -7 -7 -7 -7 -7 -7 -7 -7 -6 -6 -6 -6 -6 -6 -6 -6 -6
-6 -6 -6 -6 -6 -7 -7 -7 -7 -7 -7 -7 -7 -7 -6 -6 -6 -6 -6 -6 -6 -6 -6 -6 -6 -6 -6 -6 -6 -6 -6 -6 -6 -6 -6 -6 -6 -6 -6 -7 -7 -7 -7 -7 -7 -7 -7 -7 -7 -7 -7 -7 -7 -6 -6 -6 -6 -6 -6 -6 -6 -6 -6
-6 -7 -7 -7 -7 -7 -7 -7 -7 -7 -7 -7 -7 -7 -7 -6 -6 -6 -6 -6 -6 -7 -7 -7 -6 -6 -6 -6 -6 -6 -6 -6 -6 -6 -7 -7 -7 -7 -7 -7 -7 -7 -7 -7 -7 -7 -7 -7 -7 -7 -7 -7 -7 -6 -6 -6 -6 -6 -7 -6 -6 -6 -6
-6 -6 -7 -7 -7 -7 -7 -7 -7 -7 -7 -7 -7 -7 -7 -6 -6 -6 -6 -6 -7 -7 -7 -7 -7 -7 -7 -6 -6 -6 -6 -6 -6 -6 -7 -6 -6 -6 -6 -7 -7 -7 -7 -7 -7 -7 -7 -7 -7 -7 -7 -7 -7 -7 -7 -6 -6 -6 -6 -6 -6 -6 -6
-6 -6 -6 -7 -7 -7 -7 -7 -7 -7 -7 -7 -7 -7 -7 -7 -7 -7 -7 -7 -7 -7 -7 -7 -7 -7 -7 -7 -7 -7 -7 -7 -7 -7 -7 -6 -6 -6 -6 -6 -7 -7 -7 -7 -7 -7 -7 -7 -7 -7 -7 -7 -7 -7 -7 -7 -6 -6 -6 -6 -6 -6 -6
-6 -6 -6 -6 -7 -7 -7 -7 -7 -7 -7 -7 -7 -7 -7 -7 -7 -7 -7 -7 -7 -7 -7 -7 -7 -7 -7 -7 -7 -7 -7 -7 -7 -7 -7 -7 -6 -6 -6 -6 -6 -7 -7 -7 -7 -7 -7 -7 -7 -6 -6 -6 -6 -7 -7 -7 -6 -6 -6 -6 -6 -6 -6
-6 -6 -6 -6 -7 -7 -7 -7 -7 -7 -7 -7 -7 -7 -7 -7 -7 -7 -7 -7 -7 -7 -7 -7 -7 -7 -7 -7 -7 -7 -7 -7 -7 -7 -7 -7 -7 -7 -6 -6 -6 -6 -7 -7 -7 -7 -7 -7 -7 -6 -6 -6 -6 -6 -6 -7 -7 -6 -6 -6 -6 -6 -6
-6 -6 -7 -7 -7 -7 -7 -7 -7 -7 -7 -7 -7 -7 -7 -7 -7 -7 -7 -7 -7 -7 -7 -7 -7 -7 -7 -7 -7 -7 -6 -6 -6 -6 -6 -6 -6 -7 -7 -7 -7 -6 -6 -7 -7 -7 -7 -6 -6 -6 -6 -6 -6 -6 -6 -6 -7 -7 -6 -6 -6 -6 -6
-7 -7 -7 -7 -8 -8 -8 -7 -7 -7 -7 -7 -7 -7 -7 -7 -7 -7 -7 -7 -7 -7 -7 -7 -7 -7 -7 -7 -7 -6 -6 -6 -6 -6 -6 -6 -6 -6 -6 -7 -7 -7 -6 -6 -6 -6 -7 -7 -7 -6 -6 -6 -6 -6 -6 -6 -6 -7 -7 -6 -6 -6 -6
-7 -7 -7 -7 -8 -8 -7 -7 -7 -7 -8 -8 -8 -8 -8 -8 -8 -8 -7 -7 -7 -7 -7 -7 -7 -7 -7 -7 -7 -6 -6 -6 -6 -6 -6 -6 -6 -6 -6 -6 -6 -6 -6 -6 -6 -6 -6 -7 -7 -7 -7 -7 -6 -6 -6 -6 -7 -7 -6 -6 -6 -6 -6
-7 -7 -7 -7 -7 -7 -7 -7 -8 -8 -8 -8 -8 -8 -8 -8 -8 -8 -7 -7 -7 -7 -7 -7 -7 -7 -7 -7 -7 -6 -6 -6 -6 -6 -6 -6 -6 -6 -5 -5 -5 -6 -6 -6 -6 -6 -6 -6 -7 -7 -7 -7 -7 -7 -6 -6 -7 -7 -6 -6 -6 -6 -6
-7 -7 -7 -7 -7 -7 -8 -8 -8 -8 -8 -8 -8 -8 -8 -8 -8 -8 -7 -7 -7 -7 -7 -7 -7 -7 -7 -7 -7 -6 -6 -6 -6 -6 -6 -6 -6 -6 -6 -6 -6 -6 -6 -6 -7 -7 -7 -6 -6 -6 -6 -6 -7 -6 -6 -7 -6 -6 -6 -6 -6 -6 -6
-8 -7 -7 -7 -7 -8 -8 -8 -8 -8 -8 -8 -8 -8 -8 -8 -8 -8 -7 -7 -7 -7 -7 -7 -7 -7 -7 -7 -7 -7 -7 -7 -6 -6 -6 -7 -7 -7 -7 -7 -6 -6 -6 -7 -7 -7 -7 -7 -6 -6 -6 -6 -6 -6 -6 -6 -6 -6 -6 -6 -6 -6 -6
-7 -7 -7 -7 -7 -8 -8 -8 -8 -8 -8 -8 -8 -8 -8 -8 -8 -8 -8 -7 -7 -7 -8 -8 -7 -7 -7 -7 -7 -7 -7 -7 -7 -7 -7 -7 -7 -7 -7 -7 -7 -7 -7 -6 -6 -7 -7 -7 -6 -6 -6 -6 -6 -6 -6 -7 -6 -6 -6 -6 -6 -6 -6
-8 -8 -7 -7 -7 -8 -8 -8 -8 -8 -8 -8 -8 -8 -8 -8 -8 -8 -8 -8 -8 -8 -8 -8 -8 -7 -7 -7 -7 -7 -7 -7 -7 -7 -7 -7 -7 -7 -7 -7 -7 -6 -6 -6 -6 -6 -7 -7 -6 -6 -6 -6 -6 -6 -7 -7 -6 -6 -6 -6 -6 -6 -6
-9 -9 -8 -8 -7 -7 -8 -8 -8 -8 -8 -8 -8 -8 -8 -8 -8 -8 -8 -7 -7 -7 -7 -7 -7 -7 -7 -7 -7 -7 -7 -7 -7 -7 -7 -7 -7 -7 -7 -7 -7 -6 -6 -7 -7 -6 -6 -7 -7 -7 -7 -6 -6 -6 -7 -7 -6 -6 -6 -6 -6 -6 -6
-9 -9 -9 -8 -8 -8 -8 -8 -8 -8 -8 -8 -8 -8 -8 -8 -8 -8 -7 -7 -7 -7 -7 -7 -7 -7 -7 -7 -7 -7 -7 -7 -7 -7 -7 -7 -7 -7 -7 -7 -7 -6 -6 -6 -7 -7 -6 -7 -7 -7 -7 -7 -7 -6 -7 -7 -7 -7 -7 -7 -7 -7 -7
-9 -9 -9 -9 -8 -8 -8 -8 -8 -8 -8 -8 -8 -8 -8 -8 -8 -8 -7 -7 -7 -7 -7 -7 -7 -7 -7 -7 -7 -7 -7 -6 -7 -7 -7 -7 -7 -7 -7 -7 -7 -7 -6 -6 -7 -7 -7 -7 -7 -7 -7 -7 -7 -6 -7 -7 -7 -7 -7 -7 -7 -7 -7
-9 -10 -10 -9 -8 -8 -8 -8 -8 -8 -8 -8 -8 -8 -8 -8 -8 -8 -8 -8 -8 -8 -7 -7 -7 -7 -7 -7 -6 -6 -6 -6 -6 -6 -6 -7 -6 -7 -7 -7 -7 -7 -7 -7 -7 -7 -7 -7 -7 -7 -7 -7 -7 -7 -7 -7 -7 -7 -7 -7 -7 -7 -7
-10 -10 -10 -9 -9 -9 -9 -8 -8 -8 -8 -9 -9 -9 -9 -8 -8 -8 -8 -8 -8 -8 -8 -7 -7 -7 -7 -6 -6 -6 -6 -6 -6 -6 -6 -6 -6 -6 -7 -7 -7 -7 -7 -7 -7 -7 -7 -7 -7 -7 -7 -7 -7 -7 -7 -7 -7 -7 -7 -7 -7 -7 -7
-10 -10 -10 -10 -9 -9 -9 -9 -9 -9 -9 -9 -9 -9 -9 -9 -9 -9 -8 -8 -8 -8 -8 -7 -7 -7 -6 -6 -6 -6 -6 -6 -6 -6 -6 -6 -6 -6 -6 -6 -7 -7 -7 -7 -7 -7 -7 -7 -7 -7 -7 -7 -7 -7 -7 -7 -7 -7 -7 -7 -7 -7 -7
-10 -10 -10 -10 -10 -9 -9 -9 -9 -9 -9 -9 -9 -9 -9 -9 -9 -9 -9 -8 -8 -8 -8 -8 -7 -7 -7 -6 -7 -7 -6 -6 -6 -6 -6 -7 -7 -7 -7 -7 -7 -7 -7 -7 -7 -7 -7 -7 -7 -7 -8 -8 -8 -8 -8 -7 -7 -7 -7 -7 -7 -7 -7
-10 -10 -10 -10 -10 -9 -9 -9 -10 -9 -9 -9 -9 -9 -9 -9 -9 -9 -9 -9 -8 -8 -8 -8 -8 -8 -7 -7 -7 -7 -7 -7 -7 -7 -7 -7 -7 -7 -7 -7 -7 -7 -7 -7 -7 -7 -7 -7 -7 -8 -8 -8 -8 -8 -8 -8 -8 -8 -8 -8 -8 -8 -8
-10 -11 -11 -10 -10 -9 -9 -10 -10 -10 -9 -10 -10 -10 -10 -9 -9 -9 -9 -9 -9 -9 -8 -8 -8 -8 -8 -8 -8 -7 -7 -7 -8 -8 -8 -8 -8 -8 -8 -8 -7 -7 -7 -7 -8 -8 -8 -8 -8 -8 -8 -8 -8 -8 -8 -8 -8 -8 -8 -8 -8 -8 -8
-10 -10 -11 -10 -10 -10 -10 -10 -10 -10 -9 -10 -10 -10 -10 -10 -10 -10 -9 -9 -9 -9 -9 -8 -8 -8 -8 -8 -8 -8 -8 -8 -8 -8 -8 -8 -8 -8 -8 -8 -8 -8 -8 -8 -8 -8 -8 -8 -8 -8 -8 -8 -8 -8 -8 -8 -8 -8 -8 -8 -8 -8 -8
-10 -10 -10 -11 -11 -11 -11 -11 -11 -10 -10 -10 -10 -10 -10 -10 -9 -9 -9 -9 -9 -9 -9 -9 -9 -9 -9 -9 -8 -8 -8 -8 -8 -8 -8 -8 -8 -8 -8 -8 -9 -8 -8 -8 -9 -8 -8 -8 -9 -9 -9 -9 -9 -9 -9 -9 -9 -9 -9 -8 -8 -8 -8
-10 -10 -10 -11 -11 -11 -11 -11 -11 -11 -10 -10 -10 -10 -10 -10 -10 -10 -10 -9 -9 -9 -9 -9 -9 -9 -9 -9 -9 -9 -8 -8 -8 -9 -9 -9 -9 -9 -8 -8 -9 -8 -8 -9 -9 -9 -9 -9 -9 -9 -9 -9 -9 -9 -9 -9 -9 -9 -9 -9 -9 -9 -8
-10 -10 -11 -11 -11 -11 -11 -11 -11 -11 -11 -10 -10 -10 -10 -10 -10 -10 -10 -9 -9 -9 -10 -10 -10 -10 -9 -9 -9 -9 -9 -9 -9 -9 -9 -9 -9 -9 -9 -9 -9 -9 -9 -9 -9 -9 -9 -9 -9 -9 -9 -9 -9 -9 -9 -9 -9 -9 -9 -9 -9 -9 -9
-11 -11 -11 -11 -11 -11 -11 -11 -11 -11 -11 -11 -11 -11 -11 -11 -10 -10 -10 -10 -10 -9 -10 -10 -10 -10 -10 -9 -9 -9 -9 -9 -9 -9 -9 -9 -9 -9 -9 -9 -9 -9 -9 -9 -9 -9 -9 -10 -10 -10 -10 -10 -10 -10 -9 -9 -9 -9 -9 -9 -9 -9 -9
-11 -11 -11 -11 -11 -11 -11 -11 -11 -11 -11 -11 -11 -11 -11 -11 -11 -11 -11 -10 -10 -10 -10 -10 -10 -10 -10 -10 -9 -9 -9 -9 -9 -9 -9 -9 -9 -9 -9 -9 -9 -9 -9 -9 -9 -10 -10 -10 -10 -10 -10 -10 -10 -10 -10 -10 -10 -10 -9 -9 -9 -9 -9
-11 -11 -11 -11 -11 -11 -11 -11 -11 -11 -11 -11 -11 -11 -11 -11 -11 -11 -11 -11 -11 -10 -10 -10 -10 -10 -10 -10 -10 -10 -10 -10 -10 -10 -10 -10 -10 -10 -10 -10 -10 -10 -10 -10 -10 -10 -10 -10 -10 -10 -10 -10 -10 -10 -10 -10 -10 -10 -10 -10 -10 -10 -9
-11 -11 -11 -11 -12 -12 -11 -11 -11 -11 -11 -11 -11 -11 -11 -11 -11 -11 -11 -11 -11 -11 -11 -11 -10 -10 -10 -10 -10 -10 -10 -10 -10 -10 -10 -10 -10 -10 -10 -10 -10 -10 -10 -10 -10 -10 -10 -10 -10 -10 -10 -10 -10 -10 -10 -10 -10 -10 -10 -10 -10 -10 -10
Height
5894 5896 5897 5900 5902 5905 5908 5909 5911 5913 5914 5916 5917 5919 5920 5921 5922 5923 5925 5926 5927 5928 5929 5930 5931 5932 5933 5934 5934 5935 5936 5937 5938 5939 5940 5941 5941 5942 5943 5943 5944 5945 5945 5946 5947 5947 5948 5948 5949 5949 5950 5950 5950 5950 5951 5951 5951 5952 5952 5952 5952 5953 5953
5891 5893 5895 5898 5900 5903 5905 5907 5909 5911 5913 5915 5917 5918 5919 5920 5921 5922 5923 5925 5926 5927 5928 5929 5931 5932 5933 5933 5934 5935 5936 5937 5938 5939 5939 5940 5941 5942 5942 5943 5944 5944 5945 5946 5947 5947 5948 5948 5948 5949 5949 5950 5950 5950 5950 5951 5951 5951 5952 5952 5952 5952 5953
5889 5891 5893 5896 5898 5901 5903 5905 5908 5909 5911 5913 5915 5917 5918 5919 5920 5921 5922 5923 5925 5926 5927 5929 5930 5931 5932 5933 5933 5935 5936 5937 5938 5938 5939 5940 5941 5942 5942 5943 5943 5944 5945 5945 5946 5946 5947 5947 5948 5948 5949 5949 5949 5950 5950 5950 5951 5951 5951 5952 5952 5952 5952
5887 5889 5891 5893 5896 5898 5900 5903 5905 5907 5909 5912 5914 5915 5917 5918 5919 5920 5921 5923 5924 5925 5927 5928 5929 5931 5932 5933 5933 5934 5936 5937 5938 5938 5939 5940 5941 5942 5942 5943 5943 5944 5944 5945 5945 5946 5946 5947 5947 5948 5948 5949 5949 5949 5950 5950 5950 5951 5951 5951 5951 5952 5952
5884 5886 5889 5891 5893 5895 5898 5901 5904 5906 5907 5909 5911 5913 5915 5917 5918 5919 5921 5922 5923 5925 5926 5927 5929 5930 5931 5932 5934 5935 5935 5936 5937 5938 5939 5939 5940 5941 5942 5943 5943 5944 5944 5945 5945 5945 5946 5946 5947 5947 5948 5948 5948 5949 5949 5950 5950 5950 5951 5951 5951 5951 5951
5880 5883 5886 5888 5890 5893 5895 5898 5901 5903 5905 5907 5909 5911 5913 5915 5917 5919 5920 5921 5923 5924 5925 5927 5928 5929 5930 5932 5933 5934 5935 5936 5937 5937 5938 5939 5939 5940 5941 5942 5943 5943 5944 5944 5945 5945 5945 5946 5946 5947 5947 5947 5948 5948 5949 5949 5949 5950 5950 5950 5950 5950 5950
5877 5880 5883 5885 5888 5891 5893 5895 5897 5900 5902 5904 5906 5908 5911 5913 5915 5917 5919 5920 5922 5923 5925 5926 5927 5928 5929 5930 5931 5933 5934 5935 5936 5937 5937 5938 5938 5939 5940 5941 5942 5943 5943 5944 5944 5945 5945 5945 5945 5946 5946 5947 5947 5947 5948 5948 5948 5949 5949 5949 5949 5949 5949
5873 5876 5879 5882 5885 5888 5891 5893 5895 5897 5900 5902 5904 5907 5909 5911 5912 5915 5917 5918 5920 5922 5924 5925 5926 5927 5928 5929 5930 5931 5932 5934 5935 5935 5936 5936 5937 5938 5939 5940 5941 5941 5942 5943 5943 5944 5944 5944 5945 5945 5945 5946 5946 5946 5947 5947 5947 5948 5948 5948 5948 5948 5949
5870 5872 5875 5879 5882 5885 5887 5890 5892 5894 5897 5900 5903 5905 5907 5909 5911 5913 5914 5916 5918 5920 5921 5923 5924 5925 5927 5928 5929 5930 5931 5933 5933 5934 5934 5935 5936 5937 5937 5938 5939 5939 5940 5941 5942 5942 5943 5943 5943 5944 5944 5945 5945 5945 5946 5946 5946 5946 5947 5947 5947 5947 5947
5866 5868 5871 5874 5878 5881 5884 5886 5888 5891 5894 5897 5900 5903 5905 5907 5909 5910 5912 5914 5916 5917 5919 5920 5922 5923 5925 5926 5927 5929 5930 5931 5932 5933 5933 5933 5934 5935 5936 5936 5937 5937 5938 5939 5940 5940 5941 5941 5942 5942 5943 5943 5944 5944 5944 5944 5944 5945 5945 5945 5946 5946 5946
5863 5865 5867 5870 5873 5877 5880 5882 5885 5888 5891 5895 5898 5900 5903 5905 5906 5908 5910 5912 5913 5914 5916 5918 5919 5921 5922 5924 5925 5927 5928 5929 5930 5931 5931 5932 5932 5933 5934 5935 5935 5935 5936 5937 5937 5938 5939 5939 5940 5940 5941 5941 5942 5942 5943 5943 5943 5943 5944 5944 5944 5944 5944
5860 5862 5864 5866 5870 5874 5877 5879 5882 5886 5888 5891 5894 5897 5899 5902 5903 5906 5907 5909 5911 5912 5914 5915 5917 5918 5919 5921 5922 5924 5925 5926 5927 5928 5929 5929 5930 5931 5932 5933 5933 5934 5934 5935 5935 5936 5937 5937 5938 5938 5939 5940 5940 5941 5941 5941 5942 5942 5942 5943 5943 5943 5943
5857 5859 5861 5863 5867 5871 5874 5877 5881 5883 5886 5889 5891 5893 5896 5898 5900 5902 5904 5906 5908 5909 5911 5912 5914 5915 5916 5918 5919 5921 5922 5923 5924 5924 5925 5926 5927 5928 5930 5931 5931 5932 5932 5933 5933 5934 5934 5935 5936 5936 5937 5938 5938 5939 5939 5940 5940 5940 5941 5941 5941 5941 5942
5854 5857 5859 5861 5865 5869 5871 5875 5879 5881 5884 5886 5889 5891 5893 5895 5897 5899 5901 5903 5905 5906 5908 5909 5911 5912 5913 5915 5916 5917 5918 5919 5920 5921 5921 5922 5923 5924 5926 5927 5929 5929 5930 5930 5931 5931 5932 5933 5934 5934 5935 5935 5936 5936 5937 5937 5938 5938 5939 5939 5940 5940 5941
5851 5853 5855 5858 5862 5865 5869 5872 5876 5879 5882 5884 5886 5888 5890 5892 5894 5896 5898 5900 5902 5904 5906 5907 5909 5910 5911 5912 5914 5914 5915 5916 5917 5918 5918 5919 5920 5921 5923 5924 5925 5926 5927 5928 5928 5929 5930 5931 5932 5932 5933 5933 5934 5934 5934 5935 5936 5936 5936 5936 5938 5938 5939
5848 5849 5852 5855 5858 5862 5866 5869 5872 5876 5878 5881 5884 5886 5887 5889 5891 5892 5894 5896 5899 5901 5903 5905 5906 5908 5909 5910 5911 5911 5912 5913 5915 5916 5917 5918 5919 5920 5921 5921 5922 5923 5924 5925 5926 5927 5928 5928 5929 5930 5930 5930 5931 5931 5931 5932 5933 5933 5932 5933 5933 5934 5935
5845 5847 5849 5852 5854 5858 5861 5865 5868 5871 5875 5877 5880 5882 5884 5886 5888 5889 5891 5893 5896 5898 5900 5901 5903 5904 5906 5907 5908 5909 5910 5911 5913 5914 5915 5916 5918 5919 5920 5920 5921 5921 5922 5923 5923 5924 5925 5926 5926 5926 5926 5927 5927 5927 5928 5930 5930 5929 5929 5930 5930 5930 5932
5844 5845 5848 5850 5853 5855 5858 5861 5865 5868 5871 5874 5876 5878 5881 5884 5886 5888 5890 5892 5894 5896 5897 5898 5900 5901 5903 5904 5905 5906 5907 5908 5910 5911 5912 5914 5915 5915 5916 5918 5919 5919 5920 5920 5921 5921 5922 5922 5923 5923 5922 5923 5923 5924 5925 5927 5926 5926 5927 5927 5927 5927 5928
5844 5844 5846 5848 5851 5853 5855 5858 5861 5865 5868 5871 5874 5877 5879 5882 5884 5886 5889 5891 5892 5894 5895 5896 5897 5899 5900 5901 5902 5903 5904 5905 5906 5908 5909 5910 5911 5911 5912 5913 5915 5916 5916 5916 5916 5916 5917 5918 5919 5920 5920 5921 5921 5921 5922 5923 5922 5923 5924 5924 5924 5924 5924
5844 5843 5844 5845 5846 5849 5852 5855 5858 5862 5864 5867 5870 5873 5876 5879 5881 5884 5886 5888 5889 5891 5892 5893 5894 5896 5897 5897 5898 5899 5900 5901 5902 5904 5906 5907 5907 5908 5909 5909 5910 5910 5911 5911 5911 5911 5912 5913 5915 5916 5917 5917 5917 5918 5919 5920 5919 5919 5920 5920 5920 5921 5921
5842 5841 5840 5840 5841 5844 5847 5850 5854 5857 5860 5863 5866 5869 5872 5875 5877 5879 5881 5883 5885 5886 5887 5889 5890 5892 5893 5894 5895 5896 5897 5898 5899 5901 5902 5903 5904 5905 5906 5906 5906 5907 5907 5908 5908 5907 5908 5909 5910 5911 5912 5913 5914 5915 5916 5916 5916 5916 5916 5917 5917 5918 5918
5838 5838 5838 5838 5838 5840 5842 5846 5850 5854 5857 5859 5862 5865 5868 5871 5873 5875 5877 5879 5881 5882 5884 5885 5887 5888 5890 5891 5892 5893 5893 5895 5895 5897 5899 5901 5902 5902 5902 5902 5903 5903 5904 5905 5904 5904 5905 5905 5905 5906 5907 5908 5909 5911 5912 5912 5912 5913 5913 5914 5914 5915 5915
5836 5838 5838 5838 5838 5840 5842 5846 5849 5852 5854 5857 5859 5861 5864 5867 5869 5871 5873 5875 5877 5878 5880 5882 5884 5885 5885 5886 5887 5888 5888 5889 5891 5892 5894 5896 5897 5898 5898 5898 5898 5898 5900 5901 5901 5901 5902 5902 5902 5902 5903 5904 5905 5907 5908 5909 5909 5910 5910 5911 5911 5911 5911
5836 5838 5838 5838 5839 5841 5843 5846 5848 5850 5852 5853 5855 5857 5860 5862 5865 5868 5870 5872 5873 5875 5877 5879 5880 5881 5881 5882 5883 5883 5883 5884 5886 5887 5889 5890 5892 5894 5894 5894 5893 5892 5894 5897 5898 5898 5898 5899 5900 5900 5900 5901 5902 5903 5905 5905 5906 5906 5906 5907 5907 5907 5907
5836 5837 5838 5839 5840 5841 5842 5845 5847 5849 5850 5851 5853 5854 5857 5859 5862 5865 5867 5869 5870 5872 5874 5876 5877 5878 5878 5879 5879 5879 5879 5880 5881 5882 5883 5884 5887 5888 5888 5889 5888 5888 5889 5891 5893 5894 5895 5895 5896 5896 5896 5897 5898 5900 5901 5901 5902 5902 5902 5902 5903 5903 5903
5836 5837 5838 5839 5839 5840 5841 5844 5847 5849 5849 5850 5852 5854 5856 5858 5860 5862 5864 5866 5867 5869 5871 5872 5873 5875 5876 5875 5874 5874 5874 5875 5875 5876 5877 5879 5880 5880 5881 5883 5883 5882 5883 5886 5888 5889 5889 5889 5890 5891 5892 5894 5895 5896 5897 5897 5897 5898 5898 5898 5898 5898 5898
5835 5836 5837 5838 5839 5839 5840 5842 5844 5845 5846 5848 5850 5853 5855 5857 5858 5860 5862 5863 5865 5866 5868 5869 5870 5871 5873 5871 5869 5869 5870 5871 5870 5870 5870 5872 5872 5872 5874 5875 5875 5876 5878 5881 5883 5883 5883 5884 5886 5887 5889 5890 5891 5891 5892 5892 5893 5894 5894 5894 5894 5894 5894
5834 5834 5835 5837 5838 5839 5840 5840 5842 5843 5844 5846 5848 5850 5852 5854 5856 5858 5860 5861 5862 5863 5864 5865 5866 5868 5869 5867 5865 5865 5866 5866 5865 5865 5865 5865 5866 5866 5867 5868 5869 5871 5874 5876 5878 5878 5879 5880 5882 5883 5884 5886 5886 5886 5887 5888 5889 5889 5889 5889 5889 5890 5890
5832 5833 5834 5836 5837 5838 5838 5839 5840 5842 5844 5846 5847 5849 5850 5852 5854 5855 5857 5858 5859 5860 5861 5862 5863 5864 5864 5864 5863 5863 5863 5863 5862 5861 5862 5862 5862 5863 5863 5863 5864 5866 5869 5872 5873 5874 5875 5876 5878 5879 5880 5881 5881 5882 5883 5884 5884 5885 5885 5885 5885 5885 5886
5831 5832 5833 5834 5836 5837 5837 5838 5839 5841 5843 5844 5846 5848 5849 5851 5852 5853 5855 5855 5856 5857 5858 5859 5860 5860 5861 5861 5861 5861 5860 5860 5860 5860 5860 5860 5860 5861 5861 5860 5860 5862 5865 5868 5870 5871 5871 5872 5874 5875 5875 5876 5877 5877 5878 5879 5879 5880 5880 5880 5881 5881 5881
5829 5831 5832 5833 5834 5835 5836 5837 5838 5840 5842 5843 5844 5845 5847 5849 5850 5851 5852 5853 5853 5854 5855 5855 5856 5857 5858 5858 5858 5858 5858 5858 5858 5858 5858 5858 5859 5860 5860 5860 5861 5862 5864 5866 5867 5868 5869 5869 5870 5870 5871 5871 5872 5873 5873 5874 5874 5875 5875 5876 5876 5876 5877
5827 5829 5830 5832 5833 5834 5835 5836 5837 5839 5840 5841 5842 5843 5845 5846 5847 5848 5849 5850 5850 5851 5851 5852 5853 5853 5854 5855 5855 5856 5856 5856 5857 5857 5857 5857 5858 5859 5860 5860 5860 5861 5862 5863 5863 5864 5865 5865 5866 5866 5867 5867 5868 5868 5869 5869 5870 5870 5871 5872 5872 5872 5872
5825 5827 5829 5830 5832 5833 5834 5835 5835 5837 5838 5839 5840 5841 5843 5844 5845 5846 5847 5847 5848 5848 5849 5849 5850 5851 5851 5852 5852 5853 5854 5854 5855 5855 5856 5856 5856 5857 5858 5858 5858 5859 5859 5860 5860 5861 5862 5862 5863 5863 5863 5864 5865 5865 5865 5866 5866 5867 5867 5867 5867 5868 5868
5823 5825 5827 5828 5830 5831 5832 5834 5834 5835 5837 5838 5839 5840 5841 5842 5843 5844 5845 5845 5846 5846 5846 5847 5848 5848 5849 5849 5850 5851 5851 5851 5852 5853 5854 5854 5855 5855 5855 5856 5857 5857 5858 5858 5858 5859 5859 5860 5860 5860 5861 5861 5862 5862 5862 5862 5863 5863 5863 5863 5863 5863 5863
5819 5821 5823 5825 5827 5828 5830 5831 5833 5834 5835 5837 5837 5838 5839 5840 5841 5842 5843 5843 5844 5844 5845 5845 5846 5846 5847 5847 5848 5848 5849 5849 5850 5850 5851 5852 5852 5853 5853 5854 5854 5855 5855 5855 5856 5856 5856 5857 5857 5857 5857 5858 5858 5858 5858 5859 5858 5858 5858 5858 5858 5858 5857
5815 5817 5820 5821 5823 5825 5827 5828 5830 5832 5833 5834 5835 5836 5837 5838 5839 5839 5840 5841 5842 5842 5843 5844 5844 5845 5845 5846 5846 5846 5846 5846 5846 5847 5847 5848 5848 5849 5850 5850 5851 5851 5852 5852 5852 5853 5853 5853 5853 5853 5853 5853 5853 5854 5854 5854 5854 5853 5853 5853 5852 5852 5852
5813 5814 5816 5818 5820 5822 5824 5825 5827 5829 5830 5832 5832 5833 5834 5835 5836 5837 5837 5838 5839 5840 5841 5841 5842 5843 5843 5843 5844 5844 5844 5844 5844 5844 5844 5844 5844 5845 5846 5846 5847 5847 5847 5848 5848 5848 5848 5848 5848 5848 5848 5848 5848 5848 5848 5848 5848 5848 5848 5847 5847 5846 5846
5810 5811 5813 5815 5817 5819 5821 5823 5824 5826 5827 5829 5830 5831 5831 5832 5833 5834 5835 5836 5837 5837 5838 5839 5839 5840 5840 5840 5841 5841 5841 5841 5841 5841 5841 5841 5841 5841 5842 5842 5843 5843 5843 5843 5844 5843 5843 5844 5843 5843 5843 5843 5842 5842 5842 5842 5841 5841 5841 5841 5840 5840 5840
Wind_Speed
34 33 32 29 27 24 22 22 22 22 23 22 22 22 21 20 20 19 18 17 17 18 17 17 16 16 16 15 15 15 14 14 13 13 12 11 10 10 9 8 8 8 8 8 8 8 8 8 7 7 7 6 6 5 5 5 4 4 4 3 3 3 3
36 34 34 31 29 27 25 25 24 24 25 24 23 23 23 22 21 20 20 19 18 18 18 18 17 17 17 16 16 15 14 14 14 13 12 11 11 10 10 9 9 9 9 8 8 8 8 8 8 8 8 7 7 7 7 6 6 6 5 5 4 4 4
38 34 34 34 30 29 28 27 27 25 25 26 25 24 24 23 22 22 21 20 19 18 18 19 18 18 18 17 17 16 15 15 14 13 12 11 11 11 11 10 10 10 10 10 9 9 9 8 8 8 8 8 8 8 8 8 8 8 7 7 7 6 6
39 35 35 37 33 31 31 29 28 27 26 26 26 26 26 25 24 24 22 21 20 19 19 20 19 19 18 18 17 16 15 15 14 13 12 11 11 12 12 11 11 11 11 11 11 10 10 10 9 9 9 9 9 9 9 9 9 9 9 8 8 8 8
40 38 35 38 37 34 33 31 29 28 27 27 27 28 27 27 26 25 24 22 22 21 21 20 19 18 18 18 17 16 15 14 14 13 13 12 12 13 12 11 11 10 11 11 11 11 10 11 11 11 11 10 10 9 9 9 9 9 9 9 9 9 8
39 39 38 38 39 38 34 32 31 30 29 28 28 29 28 27 26 25 24 24 23 22 21 20 19 18 18 18 17 16 15 14 14 14 14 14 14 14 13 12 11 11 11 11 11 11 11 11 11 11 12 11 11 11 10 10 10 10 10 9 9 9 9
43 39 40 39 39 39 36 34 33 32 31 31 30 30 29 27 27 26 24 24 23 23 22 20 20 19 18 18 18 17 16 16 15 15 15 15 15 15 14 14 13 12 12 12 12 12 11 11 11 12 12 12 12 12 11 11 11 11 11 10 10 10 10
48 43 41 41 40 39 39 37 35 33 33 32 32 30 29 28 27 26 25 24 24 23 22 21 20 20 19 19 19 18 18 17 17 17 17 17 17 16 16 15 15 14 14 13 13 12 12 12 12 12 12 13 13 12 12 11 11 11 11 11 11 11 11
44 48 45 43 42 41 41 40 38 36 34 33 32 31 30 29 28 26 25 24 23 23 22 22 21 21 21 20 20 19 19 19 18 18 18 18 18 18 17 17 16 16 16 15 15 14 13 13 13 13 14 14 14 13 13 13 12 12 12 12 12 12 11
36 47 47 45 44 42 41 41 40 38 36 34 33 32 31 30 29 28 27 25 24 24 23 22 22 22 22 22 21 21 20 20 20 19 20 20 20 20 19 19 18 18 17 17 16 16 15 15 15 15 15 15 15 15 14 14 14 14 14 14 14 14 13
30 41 45 46 46 42 40 42 42 40 37 35 34 33 32 31 30 29 28 26 26 25 25 24 23 23 23 23 23 22 22 22 21 21 21 22 22 21 21 21 20 20 19 18 18 17 17 17 17 17 17 17 16 16 16 16 16 16 15 15 16 15 15
29 38 45 47 45 41 40 42 43 40 39 37 35 35 33 32 31 30 29 28 28 27 27 26 26 26 25 25 25 24 24 24 23 23 23 24 24 23 23 23 22 22 21 20 19 19 18 18 18 18 17 17 17 17 16 16 16 16 16 16 16 16 16
31 40 46 47 44 41 41 42 42 40 39 37 36 35 35 33 32 31 30 30 30 30 29 29 29 28 28 28 27 27 27 26 26 26 26 26 26 25 25 24 24 24 23 21 21 20 20 20 19 19 19 18 18 18 17 17 17 16 16 15 15 15 15
34 43 47 48 44 41 41 41 41 40 38 37 37 36 35 35 34 33 32 32 32 32 31 32 31 31 31 31 30 30 30 30 29 29 29 29 29 28 27 26 26 26 25 24 23 23 22 21 21 21 20 20 20 19 19 19 18 18 18 16 16 15 14
36 47 48 48 46 42 42 41 40 40 39 38 38 37 36 36 34 34 33 33 33 32 32 33 32 32 32 32 32 32 32 32 32 32 32 32 31 30 29 29 28 28 27 27 26 25 25 24 23 23 22 22 22 22 22 21 19 20 21 20 18 17 16
31 50 50 48 47 43 43 43 41 41 40 39 38 38 37 36 35 35 35 34 34 33 33 33 32 32 32 32 33 33 33 33 33 32 32 33 32 32 31 30 29 29 29 29 28 27 26 26 25 25 25 25 25 25 24 23 21 23 24 23 21 20 19
22 47 52 48 48 46 44 44 43 42 41 41 40 39 38 37 36 35 35 34 33 32 32 32 32 33 32 32 33 34 33 32 32 31 31 31 31 31 31 31 30 30 30 30 30 29 28 28 27 28 28 27 27 27 25 24 24 26 26 25 24 23 22
11 36 49 47 46 47 46 45 44 43 42 42 41 40 39 37 36 35 34 32 31 30 30 30 30 30 29 30 31 32 31 30 29 29 28 27 28 30 31 31 30 31 31 31 31 31 30 30 29 30 30 29 29 29 26 25 26 26 26 25 25 25 24
5 21 41 46 45 46 47 47 45 44 44 43 41 40 38 36 35 34 32 31 29 28 28 28 27 27 27 27 28 29 29 29 28 27 26 27 28 30 31 30 29 29 30 32 32 33 33 32 31 31 31 30 31 30 27 26 27 26 26 26 26 25 25
7 10 26 41 48 49 48 47 46 45 45 44 42 40 38 36 35 34 33 32 30 29 29 29 29 28 29 30 30 30 31 32 31 29 28 29 30 30 31 31 29 29 30 32 33 32 32 32 32 32 32 31 31 30 28 28 28 26 26 26 26 25 25
12 11 14 27 43 51 51 48 49 49 48 46 43 41 39 37 36 35 35 34 34 33 33 33 32 32 32 33 33 33 34 34 34 32 31 31 31 32 33 33 33 31 31 31 32 32 30 30 32 33 33 32 32 30 28 27 27 27 26 26 25 25 24
13 12 8 14 29 47 55 52 49 48 45 43 41 41 41 40 39 38 37 36 36 35 35 34 33 33 33 33 34 35 36 37 38 37 34 34 34 35 35 35 36 36 34 32 32 32 31 29 30 32 33 33 32 30 28 28 27 26 25 25 24 24 24
13 11 9 9 15 30 44 46 42 42 43 44 44 43 41 40 39 38 37 36 35 35 35 34 34 34 35 35 35 36 36 38 41 42 40 39 38 38 37 37 39 41 40 37 36 35 33 32 31 32 33 33 32 30 29 28 27 26 25 25 25 25 26
14 13 14 12 11 17 25 29 28 29 31 35 41 45 45 44 42 39 38 37 36 36 36 35 33 33 33 34 34 35 36 38 40 43 45 45 42 41 42 42 44 45 44 42 40 37 36 35 35 35 35 34 33 31 29 29 28 27 27 26 27 27 28
14 14 15 15 14 16 17 18 17 16 16 19 23 29 36 40 40 39 37 35 34 33 31 30 28 27 27 28 30 33 35 37 38 40 44 46 46 46 47 46 46 46 45 44 42 38 37 37 38 39 38 35 33 31 30 29 30 30 29 29 29 30 31
14 14 15 15 16 18 18 17 15 14 14 15 15 16 20 24 27 29 28 27 27 26 24 23 22 21 19 18 22 25 28 31 36 38 39 41 44 48 49 49 50 49 47 44 41 38 38 40 40 40 39 36 34 32 32 32 32 32 32 32 32 33 33
16 15 16 16 16 17 19 18 16 14 14 16 16 16 17 18 20 21 21 21 21 21 20 19 18 18 14 10 11 16 20 24 30 35 39 43 46 49 50 50 51 51 47 44 41 40 41 42 42 41 39 37 36 34 33 33 33 34 35 35 34 34 33
18 17 19 18 17 17 17 16 15 14 13 14 15 16 18 19 20 20 20 20 18 17 17 17 17 18 17 13 13 17 20 21 22 25 30 34 37 40 44 46 47 46 42 41 42 43 44 42 40 40 39 38 38 37 36 34 34 33 33 33 32 32 31
19 16 18 20 20 18 16 14 13 12 10 11 14 15 16 18 20 21 21 21 20 19 18 18 17 17 18 17 16 17 17 16 14 13 14 16 17 20 27 35 42 44 42 40 40 41 42 41 39 38 38 38 38 38 37 34 32 31 30 29 30 30 30
19 14 13 17 19 18 15 13 12 12 11 11 13 14 15 17 18 19 19 19 20 20 21 21 20 20 19 18 17 17 16 14 12 9 8 9 10 10 10 14 22 28 30 31 30 29 30 32 32 33 35 35 35 36 36 33 32 31 30 30 30 30 31
20 17 12 12 13 13 12 11 10 11 13 13 14 15 16 16 16 15 15 17 18 19 21 21 22 23 22 20 20 20 19 17 14 10 8 9 10 9 7 6 8 10 13 16 17 17 17 18 19 22 26 26 27 30 31 30 30 30 30 30 29 30 30
20 20 15 11 9 9 8 8 8 9 12 13 13 14 14 15 15 14 13 15 17 18 19 20 20 22 22 21 22 23 24 23 19 15 13 13 12 10 9 10 11 11 13 15 17 16 17 20 21 22 23 22 22 24 25 26 28 29 29 30 30 31 31
18 19 17 14 12 11 10 9 8 8 8 10 12 13 13 13 15 14 13 14 16 18 19 19 19 20 21 21 21 22 24 25 22 18 16 17 16 15 15 15 17 18 19 21 21 21 22 24 25 25 24 23 23 24 26 27 29 30 30 31 31 32 33
17 17 17 16 15 15 14 13 12 12 10 10 11 13 13 14 14 15 15 15 15 16 17 18 18 20 21 22 22 23 24 24 23 21 20 19 19 19 19 19 20 21 22 23 24 24 25 26 26 26 26 26 26 27 28 29 31 32 32 33 34 35 36
19 19 19 18 17 17 17 16 16 16 15 15 14 14 15 14 14 15 16 16 16 15 15 15 16 17 19 21 22 23 24 24 24 23 23 22 21 22 22 22 23 24 25 26 26 27 28 28 28 29 30 30 31 31 32 33 34 35 36 37 38 38 39
22 20 21 21 20 19 19 18 18 18 18 18 17 16 16 16 15 16 16 17 18 18 18 19 19 19 20 21 22 23 24 24 25 25 25 24 24 24 25 26 26 27 28 29 29 30 30 31 31 32 32 33 34 35 36 37 37 38 39 40 41 42 42
24 22 22 23 23 22 20 19 19 19 19 18 18 18 18 17 17 17 17 18 19 20 21 22 23 23 23 23 23 24 24 25 25 26 26 26 27 26 27 27 28 29 30 31 31 32 33 33 34 35 35 36 36 37 38 39 40 41 41 42 43 44 45
26 25 25 24 23 22 21 20 20 20 19 19 19 19 19 19 19 18 19 20 21 22 23 24 24 25 25 26 25 26 26 26 27 28 28 29 29 30 30 31 31 32 33 33 34 35 36 37 37 38 39 39 40 40 41 42 42 43 44 44 45 46 46
Wind_Direction
198 197 198 199 199 199 198 197 197 199 200 202 203 204 203 202 200 199 201 199 196 195 196 199 200 197 194 190 187 186 183 181 181 180 181 181 181 180 180 182 184 186 191 195 195 190 190 193 194 195 199 201 202 204 202 201 201 200 202 203 204 207 216
199 197 198 199 197 197 198 197 197 199 201 203 204 204 204 203 201 200 202 203 202 200 200 202 204 203 199 195 194 193 191 188 186 185 186 186 186 186 185 188 189 190 192 195 198 198 196 198 201 202 205 208 212 216 219 220 220 222 224 226 229 229 230
201 198 197 198 197 196 198 198 198 200 203 204 205 206 206 204 203 203 203 204 204 205 205 207 208 208 205 201 199 199 198 195 192 190 190 190 191 193 193 195 197 197 197 197 199 200 199 201 205 209 210 211 214 218 222 224 226 229 232 235 238 242 243
203 201 197 197 197 197 199 199 198 201 203 205 207 208 209 207 206 205 206 206 207 208 209 210 210 211 211 209 205 204 203 203 201 198 196 197 198 200 201 201 202 203 204 204 203 201 201 200 202 208 212 214 217 220 224 226 227 229 233 237 241 244 247
205 205 200 198 198 197 198 198 199 203 205 206 208 210 211 212 211 209 209 209 210 212 213 213 213 215 216 216 214 212 211 211 210 207 205 204 206 209 209 209 208 207 210 212 211 208 208 206 203 206 211 215 219 221 225 228 229 229 231 235 241 244 246
205 206 204 201 201 198 196 197 199 203 206 208 210 211 212 213 214 214 214 214 215 217 218 217 216 217 218 220 220 219 219 219 218 216 214 212 213 214 215 217 218 216 217 219 219 219 217 215 211 212 214 217 220 222 224 228 231 232 233 235 240 244 246
206 207 206 205 204 200 197 197 199 202 206 209 210 211 212 213 215 217 218 219 221 222 223 222 222 221 220 221 222 222 222 223 223 222 221 220 220 219 219 221 223 224 226 226 227 228 226 222 220 221 221 222 223 225 227 230 234 235 237 238 240 243 246
208 208 208 207 206 202 200 200 202 204 207 209 211 212 213 214 216 217 219 221 223 226 226 226 227 227 226 225 225 225 225 225 226 226 226 226 226 225 224 225 226 228 231 232 233 235 234 231 229 228 229 230 231 231 233 235 237 239 241 242 242 244 246
212 210 209 209 206 204 203 203 204 205 207 210 211 213 214 216 217 218 220 222 224 226 227 227 229 230 231 230 229 229 230 230 231 230 231 231 231 231 229 229 230 232 233 236 237 239 240 241 240 238 238 238 239 239 240 240 240 241 244 246 247 248 250
217 212 212 210 207 206 205 204 205 206 207 209 211 214 215 216 218 220 221 223 225 227 228 228 230 232 233 233 233 233 233 234 234 235 236 236 236 236 235 234 234 235 237 239 241 243 245 246 247 246 245 244 244 245 245 245 245 244 245 248 250 251 252
222 215 214 213 210 208 206 205 206 207 207 209 211 214 216 217 219 220 221 223 226 228 230 230 230 232 233 234 235 235 235 235 236 237 238 239 240 240 240 240 240 239 240 241 243 246 248 249 250 250 249 247 247 247 248 249 251 249 248 249 252 254 257
221 216 215 215 212 209 207 206 207 208 209 209 211 213 215 216 218 220 221 223 226 228 230 231 231 232 233 234 234 235 235 235 235 236 237 239 241 242 242 243 245 244 243 243 245 247 249 250 250 250 249 249 249 249 250 251 252 253 251 252 255 258 260
217 212 213 215 213 208 206 207 208 210 211 211 213 215 216 216 217 218 220 221 224 226 228 230 232 233 234 234 234 235 236 236 236 236 236 237 239 241 242 244 246 247 246 245 246 247 248 250 250 250 250 250 250 251 251 252 253 253 253 254 256 259 260
214 211 212 213 211 207 206 207 208 211 212 214 216 217 218 218 218 218 220 221 223 225 227 229 230 232 234 234 235 235 236 236 237 237 238 238 238 239 240 242 244 246 247 247 246 246 247 248 249 252 253 254 255 255 254 254 256 259 259 257 257 261 265
216 213 212 210 208 207 206 207 209 212 213 215 217 219 220 220 219 219 221 223 224 225 227 229 231 232 234 235 236 237 238 239 239 239 240 241 241 240 240 240 242 243 245 246 246 246 247 249 250 252 255 257 258 259 258 257 258 261 260 257 255 256 258
222 212 208 207 207 208 207 207 209 211 213 216 218 220 221 220 220 220 221 223 224 225 227 229 231 232 234 236 238 239 241 242 244 245 245 246 248 247 246 244 243 244 245 246 247 248 249 252 255 257 258 258 259 259 260 260 259 258 257 258 257 254 251
230 212 208 206 206 207 207 208 210 211 213 215 217 220 221 221 221 222 222 223 223 223 225 227 230 232 234 236 239 241 243 245 247 249 250 251 253 255 255 253 250 248 248 248 249 250 251 252 255 258 258 258 258 258 258 260 259 258 259 261 262 260 257
243 214 213 212 209 208 207 209 211 213 213 215 217 219 220 221 222 223 224 224 222 221 223 226 230 233 235 237 241 243 245 245 246 248 249 249 250 252 255 258 258 255 252 252 252 252 252 252 253 255 256 257 257 257 256 257 258 259 261 262 262 263 262
278 217 215 216 215 212 210 210 212 214 215 216 218 220 220 220 222 223 225 227 226 226 227 229 232 236 239 241 242 244 246 246 245 246 247 247 247 247 248 251 255 257 254 252 251 251 252 252 252 253 255 256 257 258 258 257 258 259 261 261 261 261 261
267 225 214 216 216 214 213 213 213 215 218 217 217 219 220 220 222 224 227 230 232 234 235 236 237 239 241 243 244 244 246 246 246 246 246 247 249 251 249 248 249 251 250 248 247 247 250 253 254 254 254 255 256 257 258 258 258 258 259 259 259 259 259
239 227 211 211 213 212 212 213 213 214 217 218 217 218 220 220 222 223 226 228 231 234 236 237 239 241 244 247 249 248 248 248 249 249 248 248 251 253 254 252 251 250 250 250 248 246 246 251 255 256 255 254 254 253 254 255 256 256 257 258 260 260 260
228 226 213 198 203 207 209 212 214 214 217 219 218 219 220 221 222 224 226 228 231 234 237 240 244 249 251 253 253 253 251 249 250 250 251 250 250 253 254 254 254 254 252 252 252 250 247 247 250 254 254 253 251 249 248 251 252 251 254 257 259 260 260
226 231 228 196 183 194 203 209 213 215 218 221 221 222 223 224 224 226 229 231 235 239 243 248 251 253 254 254 253 252 250 249 248 249 250 250 251 253 253 251 254 256 253 251 252 252 250 248 249 253 253 251 249 248 247 249 250 250 251 254 256 257 258
233 236 232 215 179 174 187 195 199 204 209 213 216 220 223 225 227 228 230 234 239 242 246 248 250 251 253 253 252 251 249 248 248 247 247 247 247 248 249 248 250 253 252 250 251 251 250 251 253 254 252 249 248 247 247 249 251 252 252 254 256 258 259
234 235 234 225 203 185 182 183 183 187 191 192 198 206 212 217 220 223 225 228 232 235 238 241 243 245 249 251 252 252 250 249 247 246 246 246 244 244 246 247 248 250 250 250 251 251 248 248 251 252 250 248 247 247 247 249 253 254 255 257 259 262 263
238 235 234 231 216 198 186 182 184 190 194 192 189 192 198 204 207 210 213 216 219 222 226 230 232 232 240 250 250 246 249 251 249 245 243 243 243 243 245 246 246 247 248 248 251 254 250 246 247 248 248 248 248 248 248 250 253 256 258 260 263 264 265
252 244 234 239 235 210 186 180 188 195 197 195 194 198 202 205 206 207 210 214 217 222 224 227 226 222 226 248 251 242 249 257 254 245 239 238 239 241 242 243 243 246 247 247 249 253 251 250 249 248 247 248 249 249 250 252 256 259 260 261 262 262 262
260 252 236 237 241 221 196 189 198 205 203 200 200 204 209 213 215 216 218 219 220 221 222 225 226 222 222 233 249 253 257 261 260 252 244 241 242 242 241 239 240 242 245 247 249 252 252 252 251 248 247 249 250 250 251 254 258 259 258 257 256 256 257
262 258 240 235 235 226 213 208 211 213 215 215 213 213 215 218 221 223 224 224 224 225 227 228 229 230 232 237 243 247 249 252 258 259 247 242 246 245 241 241 243 244 245 247 251 252 251 250 250 250 250 251 251 249 250 252 254 255 254 252 253 254 256
254 255 247 236 232 230 229 231 229 228 234 236 230 227 225 221 219 222 227 231 234 238 243 243 241 243 248 249 245 244 246 250 256 254 238 238 248 247 241 243 242 239 239 241 245 249 250 250 252 253 251 249 247 246 245 246 249 250 251 252 253 255 256
244 246 252 245 235 234 240 249 249 243 245 250 250 251 252 244 238 240 245 248 253 256 257 254 252 252 252 250 247 250 257 261 259 245 226 231 242 240 240 252 241 226 232 244 248 250 250 246 245 248 247 245 244 243 243 245 248 250 251 252 253 255 256
240 243 252 253 242 230 230 242 251 245 246 254 260 264 267 263 258 260 261 256 256 257 256 255 253 253 253 250 246 250 257 260 256 244 231 234 243 241 237 244 244 232 232 241 243 241 237 235 238 247 252 251 250 249 250 251 253 254 254 255 256 258 259
239 243 248 249 243 233 228 237 251 253 252 256 257 256 258 257 255 255 257 255 252 250 251 252 251 251 251 249 245 245 249 251 250 246 243 244 249 249 242 238 239 237 233 234 237 239 240 242 248 256 260 260 259 259 260 260 260 260 260 261 262 263 264
233 236 240 241 241 238 235 237 246 255 260 258 254 252 252 253 253 251 251 254 255 253 252 252 252 251 249 248 245 243 244 247 250 253 256 256 255 254 251 246 246 247 246 246 248 251 252 253 255 259 261 262 263 263 263 263 263 263 264 265 266 267 268
225 227 231 234 237 239 239 239 242 248 255 257 257 256 254 253 252 250 249 251 256 258 256 255 254 253 252 252 253 253 254 257 261 263 263 263 259 257 257 256 255 256 257 258 259 261 262 263 263 264 264 265 264 264 264 264 265 265 266 267 268 269 270
222 222 225 230 234 238 241 243 244 245 249 253 257 259 258 255 252 250 249 250 252 254 255 256 258 259 259 259 260 261 263 266 269 270 271 270 268 266 265 265 264 264 264 265 265 266 267 268 268 268 268 267 267 267 266 266 266 266 267 268 268 269 270
230 230 229 229 233 238 241 244 246 247 247 249 253 257 258 256 254 251 249 248 250 252 253 255 257 259 261 262 262 263 264 266 269 271 272 273 272 271 270 268 268 268 268 269 269 269 270 271 271 272 272 271 271 271 271 271 270 270 270 270 270 270 271
235 235 234 232 233 237 241 245 250 252 250 247 247 250 252 252 251 251 249 248 249 250 252 253 255 256 257 259 260 260 262 262 263 265 267 268 269 270 271 271 271 271 271 271 272 272 273 274 274 275 275 276 276 277 277 277 276 276 275 275 275 274 274